Daviess Cnty AP, Washington,, IN

9:46 PM EST on December 15, 2019 (GMT -0500)
Daviess County

Weather History for KDCY - October, 2019

Change the Weather History Date:

Thursday, October 17, 2019

  Actual Average (WUND) Record (WUND)
Temperature  
Mean Temperature 48 °F -  
Max Temperature 59 °F - - (-1)
Min Temperature 36 °F - - (-1)
Degree Days  
Heating Degree Days 18    
Moisture  
Dew Point 36 °F    
Average Humidity 73    
Maximum Humidity 99    
Minimum Humidity 42    
Precipitation  
Precipitation 0.00 in - - ()
Sea Level Pressure  
Sea Level Pressure 30.05 in    
Wind  
Wind Speed 5 mph (WNW)    
Max Wind Speed 8 mph    
Max Gust Speed -    
Visibility 10 miles    
Events      
Averages and records for this station are not official NWS values.
T = Trace of Precipitation, MM = Missing Value Source: NWS Daily Summary

Daily Weather History Graph

Daily Weather History Graph

Search for Another Location

Airport or City:

Astronomy

Oct. 17, 2019 Rise Set
Actual Time 7:59 AM EDT 7:07 PM EDT
Civil Twilight 7:32 AM EDT 7:34 PM EDT
Nautical Twilight 7:01 AM EDT 8:05 PM EDT
Astronomical Twilight 6:31 AM EDT 8:36 PM EDT
Moon 9:41 PM EDT (10/17) 11:29 AM EDT (10/17)
Length of Visible Light 12h 01m
Length of Day
11h 08m
Waning Gibbous, 87% of the Moon is Illuminated
Oct 17
Waning Gibbous
Oct 21
Last Quarter
Oct 27
New
Nov 4
First Quarter
Nov 12
Full

Hourly Weather History & Observations

Time (EDT) Temp. Windchill Dew Point Humidity Pressure Visibility Wind Dir Wind Speed Gust Speed Precip Events Conditions
12:15 AM 42.6 °F 39.0 °F 35.6 °F 76% 30.05 in 10.0 mi NW 5.8 mph - N/A   Clear
12:35 AM 41.2 °F 36.6 °F 35.4 °F 80% 30.05 in 10.0 mi NW 6.9 mph - N/A   Clear
12:55 AM 42.4 °F 38.8 °F 35.4 °F 76% 30.04 in 10.0 mi WNW 5.8 mph - N/A   Clear
1:15 AM 42.1 °F 37.7 °F 35.4 °F 77% 30.04 in 10.0 mi West 6.9 mph - N/A   Clear
1:35 AM 41.4 °F 38.4 °F 35.6 °F 80% 30.03 in 10.0 mi West 4.6 mph - N/A   Clear
1:55 AM 42.3 °F 38.6 °F 35.6 °F 77% 30.04 in 10.0 mi WNW 5.8 mph - N/A   Clear
2:15 AM 42.4 °F 38.8 °F 35.8 °F 77% 30.05 in 10.0 mi WNW 5.8 mph - N/A   Clear
2:35 AM 40.5 °F 36.5 °F 35.1 °F 81% 30.05 in 10.0 mi West 5.8 mph - N/A   Clear
2:55 AM 41.9 °F 39.0 °F 35.6 °F 78% 30.05 in 10.0 mi West 4.6 mph - N/A   Clear
3:15 AM 39.9 °F 36.7 °F 35.1 °F 83% 30.05 in 10.0 mi West 4.6 mph - N/A   Clear
3:35 AM 37.9 °F 33.5 °F 35.2 °F 90% 30.04 in 10.0 mi West 5.8 mph - N/A   Clear
3:55 AM 37.4 °F 32.8 °F 35.6 °F 93% 30.05 in 10.0 mi West 5.8 mph - N/A   Clear
4:15 AM 38.8 °F 34.6 °F 36.0 °F 89% 30.05 in 10.0 mi West 5.8 mph - N/A   Clear
4:35 AM 38.5 °F 34.1 °F 35.4 °F 89% 30.05 in 10.0 mi West 5.8 mph - N/A   Clear
4:55 AM 38.5 °F 33.4 °F 35.8 °F 90% 30.05 in 10.0 mi West 6.9 mph - N/A   Clear
5:15 AM 37.9 °F 32.7 °F 36.0 °F 93% 30.05 in 10.0 mi West 6.9 mph - N/A   Clear
5:35 AM 37.8 °F 33.3 °F 36.3 °F 95% 30.05 in 10.0 mi West 5.8 mph - N/A   Clear
5:55 AM 37.6 °F 34.0 °F 35.6 °F 93% 30.04 in 10.0 mi West 4.6 mph - N/A   Clear
6:15 AM 37.2 °F 34.7 °F 36.5 °F 97% 30.04 in 10.0 mi WSW 3.5 mph - N/A   Clear
6:35 AM 36.7 °F 32.9 °F 36.5 °F 99% 30.05 in 10.0 mi West 4.6 mph - N/A   Clear
6:55 AM 36.9 °F - 36.5 °F 99% 30.05 in 10.0 mi Calm Calm - N/A   Clear
7:15 AM 37.0 °F 33.3 °F 36.9 °F 99% 30.05 in 10.0 mi West 4.6 mph - N/A   Clear
7:35 AM 37.4 °F 32.8 °F 37.0 °F 99% 30.05 in 10.0 mi West 5.8 mph - N/A   Clear
7:55 AM 36.9 °F 33.1 °F 36.7 °F 99% 30.05 in 10.0 mi West 4.6 mph - N/A   Clear
8:15 AM 37.4 °F 33.8 °F 37.0 °F 99% 30.05 in 10.0 mi West 4.6 mph - N/A   Clear
8:35 AM 39.6 °F 36.3 °F 38.3 °F 95% 30.06 in 10.0 mi West 4.6 mph - N/A   Clear
8:55 AM 40.5 °F 37.3 °F 37.6 °F 89% 30.07 in 10.0 mi WNW 4.6 mph - N/A   Clear
9:15 AM 40.6 °F 37.5 °F 38.1 °F 91% 30.08 in 10.0 mi WNW 4.6 mph - N/A   Clear
9:35 AM 41.7 °F 38.8 °F 37.9 °F 86% 30.08 in 10.0 mi WNW 4.6 mph - N/A   Clear
9:55 AM 43.7 °F 40.3 °F 37.4 °F 78% 30.09 in 10.0 mi NW 5.8 mph - N/A   Clear
10:15 AM 44.4 °F 42.0 °F 37.6 °F 77% 30.10 in 10.0 mi WNW 4.6 mph - N/A   Clear
10:35 AM 46.0 °F 43.9 °F 38.5 °F 75% 30.10 in 10.0 mi West 4.6 mph - N/A   Clear
10:55 AM 47.3 °F - 38.1 °F 70% 30.10 in 10.0 mi WNW 3.5 mph - N/A   Clear
11:15 AM 49.5 °F - 38.3 °F 65% 30.10 in 10.0 mi West 5.8 mph - N/A   Clear
11:35 AM 51.3 °F - 37.4 °F 59% 30.09 in 10.0 mi WNW 4.6 mph - N/A   Clear
11:55 AM 52.2 °F - 36.7 °F 56% 30.08 in 10.0 mi West 6.9 mph - N/A   Clear
12:15 PM 53.4 °F - 35.1 °F 50% 30.08 in 10.0 mi NW 5.8 mph - N/A   Clear
12:35 PM 54.3 °F - 35.4 °F 49% 30.08 in 10.0 mi West 8.1 mph - N/A   Clear
12:55 PM 55.2 °F - 34.7 °F 46% 30.07 in 10.0 mi WNW 8.1 mph - N/A   Clear
1:15 PM 55.6 °F - 35.2 °F 46% 30.06 in 10.0 mi WNW 8.1 mph - N/A   Clear
1:35 PM 56.3 °F - 35.6 °F 46% 30.06 in 10.0 mi NNW 6.9 mph - N/A   Clear
1:55 PM 56.7 °F - 35.2 °F 45% 30.05 in 10.0 mi NW 5.8 mph - N/A   Clear
2:15 PM 56.7 °F - 35.4 °F 45% 30.04 in 10.0 mi North 6.9 mph - N/A   Clear
2:35 PM 57.0 °F - 35.8 °F 45% 30.04 in 10.0 mi NW 5.8 mph - N/A   Clear
2:55 PM 58.1 °F - 35.8 °F 43% 30.03 in 10.0 mi WNW 8.1 mph - N/A   Clear
3:15 PM 57.6 °F - 35.6 °F 44% 30.03 in 10.0 mi WNW 8.1 mph - N/A   Clear
3:35 PM 57.4 °F - 34.9 °F 43% 30.02 in 10.0 mi North 3.5 mph - N/A   Clear
3:55 PM 59.0 °F - 36.1 °F 42% 30.02 in 10.0 mi WNW 5.8 mph - N/A   Clear
4:15 PM 59.2 °F - 36.5 °F 43% 30.02 in 10.0 mi WNW 8.1 mph - N/A   Clear
4:35 PM 58.5 °F - 35.8 °F 43% 30.02 in 10.0 mi NW 5.8 mph - N/A   Clear
4:55 PM 58.8 °F - 35.6 °F 42% 30.01 in 10.0 mi NW 6.9 mph - N/A   Clear
5:15 PM 58.6 °F - 35.6 °F 42% 30.01 in 10.0 mi NW 6.9 mph - N/A   Clear
5:35 PM 58.3 °F - 35.6 °F 43% 30.01 in 10.0 mi WNW 4.6 mph - N/A   Clear
5:55 PM 58.1 °F - 35.6 °F 43% 30.01 in 10.0 mi Calm Calm - N/A   Clear
6:15 PM 57.4 °F - 36.0 °F 45% 30.01 in 10.0 mi West 6.9 mph - N/A   Clear
6:35 PM 56.1 °F - 35.8 °F 46% 30.01 in 10.0 mi West 3.5 mph - N/A   Clear
6:55 PM 54.1 °F - 36.5 °F 51% 30.01 in 10.0 mi WNW 3.5 mph - N/A   Clear
7:15 PM 50.2 °F - 36.7 °F 60% 30.01 in 10.0 mi Calm Calm - N/A   Clear
7:35 PM 47.1 °F - 37.6 °F 69% 30.02 in 10.0 mi Calm Calm - N/A   Clear
7:55 PM 45.7 °F - 38.5 °F 76% 30.02 in 10.0 mi Calm Calm - N/A   Clear
8:15 PM 43.7 °F - 38.3 °F 81% 30.02 in 10.0 mi Calm Calm - N/A   Clear
8:35 PM 42.4 °F - 37.9 °F 84% 30.02 in 10.0 mi Calm Calm - N/A   Clear
8:55 PM 42.1 °F - 38.1 °F 86% 30.03 in 10.0 mi Calm Calm - N/A   Clear
9:15 PM 41.0 °F - 37.2 °F 86% 30.03 in 10.0 mi Calm Calm - N/A   Clear
9:35 PM 41.2 °F - 37.9 °F 88% 30.03 in 10.0 mi Calm Calm - N/A   Clear
9:55 PM 41.2 °F - 37.8 °F 88% 30.04 in 10.0 mi Calm Calm - N/A   Clear
10:15 PM 38.8 °F - 35.8 °F 89% 30.04 in 10.0 mi Calm Calm - N/A   Clear
10:35 PM 39.4 °F - 38.3 °F 96% 30.04 in 10.0 mi Calm Calm - N/A   Clear
10:55 PM 39.4 °F - 37.0 °F 91% 30.04 in 10.0 mi Calm Calm - N/A   Clear
11:15 PM 38.7 °F - 36.5 °F 92% 30.04 in 10.0 mi Calm Calm - N/A   Clear
11:35 PM 38.1 °F - 36.9 °F 95% 30.05 in 10.0 mi Calm Calm - N/A   Clear
11:55 PM 38.5 °F - 38.3 °F 99% 30.04 in 10.0 mi Calm Calm - N/A   Clear